CZ-4 DEB

基本信息
目录编号:
39055
目录名称:
CZ-4 DEB
国际标识:
1990-081DP
轨道中心:
EARTH
物体状态:
在轨
发射日期:
1990-09-03 UTC
轨道信息
数据来源: 国际轨道数据
星历时间: 2026-08-31T03:08:58+0800
半长轴: 7187.59km
偏心率: 0.0008258
轨道倾角: 98.750°
近地点辐角: 156.521°
升交点赤经: 234.309°
平近点角: 325.747°
近地点: 803.517km
远地点: 815.389km
周期: 101.073分钟
每日圈数: 14.247145
详细信息
发射场:
TSC
轨道高度:
LEO
数据来源:
AOE Integration Group
参考系:
TEME
时间系统:
UTC
历元类型:
SGP4
2D轨道图
3D轨道图
轨道高度分析图
轨道倾角分析图
轨道综合分析图
查看轨道综合分析图